Regional Weather Roundup
Issued by NWS Green Bay, WI

Home | Current Version | Previous Version | Text Only | Print | Product List | Glossary On
Versions: 1 2 3 4 5 6 7 8 9 10 11 12 13 14 15 16 17 18 19 20 21 22 23 24 25 26 27 28 29 30 31 32 33 34 35 36 37 38 39 40 41 42 43 44 45 46 47 48 49 50
000
ASUS43 KGRB 170610
RWRGRB

NORTH-CENTRAL AND NORTHEAST WISCONSIN REGIONAL WEATHER ROUNDUP
NATIONAL WEATHER SERVICE GREEN BAY WI
100 AM CDT THU APR 17 2014

WIZ005-009-010>012-018-019-170700-
NORTH CENTRAL WISCONSIN

CITY           SKY/WX    TMP DP  RH WIND       PRES   REMARKS
IRONWOOD       CLOUDY    30  27  86 E12       30.06S
MANITOWISH WTR LGT SNOW  30  29  96 SE9G17    30.06F
ARBOR VITAE    LGT SNOW  32  29  90 SE12      30.07F VSB 1
EAGLE RIVER    LGT SNOW  30  29  96 SE10      30.10F
LAND O LAKES   LGT SNOW  30  28  94 SE8       30.12F
RHINELANDER    LGT SNOW  30  28  92 E14       30.09S VSB 1
PHILLIPS       LGT SNOW  32  31  96 SE9       30.02F VSB 1
ANTIGO         CLOUDY    31  26  82 E22G31    30.09F
TOMAHAWK       LGT SNOW  31  30  94 SE7G17    30.06F
MERRILL        LGT SNOW  33  31  93 CALM      30.07S VSB 3/4
$$

WIZ013-073-170700-
NORTHEAST WISCONSIN

CITY           SKY/WX    TMP DP  RH WIND       PRES   REMARKS
IRON MOUNTAIN  CLOUDY    30  27  88 SE8       30.19S
MARINETTE      MOCLDY    34  28  80 E10       30.21S
OCONTO         CLOUDY    33  29  85 E6        30.19S
$$

WIZ017-030-035>037-045-170700-
CENTRAL WISCONSIN

CITY           SKY/WX    TMP DP  RH WIND       PRES   REMARKS
MEDFORD        FLURRIES  35  28  74 E15G22    30.00S
WAUSAU         LGT SNOW  33  30  88 E14       30.06S FOG
MOSINEE        FLURRIES  34  32  93 E10G21    30.07S
MARSHFIELD     CLOUDY    39  29  67 E15G25    30.00S
WISC RAPIDS    CLOUDY    41  29  62 SE13G22   30.03F
STEVENS POINT  LGT RAIN  35  30  82 SE10G20   30.07S
WAUPACA        CLOUDY    43  27  52 E10       30.10S
SHAWANO        CLOUDY    37  28  71 E8        30.15F
CLINTONVILLE   CLOUDY    37  28  70 E8        30.13S
$$

WIZ038-039-048-051-170700-
FOX VALLEY

CITY           SKY/WX    TMP DP  RH WIND       PRES   REMARKS
NWS GREEN BAY  CLOUDY    40  27  59 SE18G26   30.17S
APPLETON       CLOUDY    37  27  65 SE15G21   30.12S
OSHKOSH        CLOUDY    40  26  57 SE14      30.10F
FOND DU LAC      N/A     41  26  55 SE18      30.10F
$$

WIZ022-050-052-170700-
EAST CENTRAL WISCONSIN

CITY           SKY/WX    TMP DP  RH WIND       PRES   REMARKS
STURGEON BAY   MOCLDY    39  25  56 SE16G24   30.21R
MANITOWOC        N/A     38  29  70 SE16G24   30.19F
SHEBOYGAN        N/A     39  27  62 SE13G29   30.17S
$$

LMZ563-521-522-541>543-170700-
LAKESHORE

STATION/POSITION TIME  TEMP    WIND        PRES    VSBY  WAVE
                       AIR SEA DIR/SP/G                  HT/PER
                 (UTC) (F)     (DEG/KT/KT) (MB)    (MI)  (FT/S)
SHEBOYGAN LKSHOR 0600   39     130/ 25/ 29 1021.9F
NORTHPORT PIER   0600   35     100/ 16/ 19 1023.7S
SISTER BAY LKSHO 0600   36     140/  8/ 13   N/A
MENOMINEE LKSHOR 0600   32      20/  8/ 13 1023.8S
$$



USA.gov is the U.S. government's official web portal to all federal, state and local government web resources and services.